Flag for Germany Weather past 2 weeks in Kamp-Lintfort, North Rhine-Westphalia, Germany

Now
36 °F

Passing clouds.


Feels Like: 33 °F
Forecast: 36 / 44 °F
Wind: 5 mph from West

Location: Duesseldorf

Current Time: Jan 27, 2015 at 7:24:03 AM

Latest Report: Jan 27, 2015 at 7:00 AM


Visibility: 13 mi

Pressure: 30.19 "Hg

Humidity: 88%

Dew point: 33 °F

Location of Kamp-LintfortLocation

Historic Weather in Kamp-Lintfort — Graph

°F

Kamp-Lintfort temperature yesterday

Maximum temperature yesterday: 44 °F (at 6:00 PM)
Minimum temperature yesterday: 35 °F (at 12:00 AM)
Average temperature yesterday: 39 °F

Past Weeks' High & Low Weather Summary

 TemperatureHumidityPressure
High53 °F (Jan 13, 11:00 AM)100% (Jan 17, 8:00 AM)30.44 "Hg (Jan 17, 8:00 AM)
Low25 °F (Jan 25, 2:00 AM)58% (Jan 21, 1:00 PM)29.44 "Hg (Jan 15, 3:00 PM)
Average38 °F83%29.97 "Hg
* Reported Jan 12 6:00 AM — Jan 27 6:00 AM, Kamp-Lintfort, Weather by CustomWeather, © 2014

Note: Actual official high and low records may vary slightly from our data, if they occured in-between our weather recording intervals... More about our weather records

Advertising

Kamp-Lintfort weather history for previous 24 hours

 ConditionsComfort  
Time TempWeatherWind HumidityBarometerVisibility
6:00 AM
Jan 27
37 °FPassing clouds.5 mph88%30.19 "Hg16 mi
5:00 AM36 °FPassing clouds.3 mph90%30.19 "Hg19 mi
3:00 AM37 °FPassing clouds.5 mph90%30.17 "Hg19 mi
2:00 AM37 °FPassing clouds.3 mph91%30.16 "Hg19 mi
1:00 AM39 °FPassing clouds.6 mph88%30.15 "Hg22 mi
12:00 AM40 °FPassing clouds.5 mph87%30.14 "Hg22 mi
11:00 PM
Jan 26
40 °FOvercast.5 mph88%30.14 "Hg15 mi
9:00 PM40 °FPassing clouds.3 mph89%30.11 "Hg19 mi
8:00 PM42 °FOvercast.5 mph86%30.10 "Hg16 mi
7:00 PM43 °FOvercast.6 mph92%30.07 "Hg14 mi
6:00 PM44 °FLight rain. Overcast.6 mph90%30.06 "Hg11 mi
5:00 PM42 °FRain. Low clouds.3 mph100%30.03 "Hg1 mi
3:00 PM40 °FRain. Low clouds.5 mph98%30.06 "Hg2 mi
2:00 PM40 °FRain. Low clouds.6 mph98%30.08 "Hg1 mi
1:00 PM39 °FDrizzle. Low clouds.7 mph97%30.10 "Hg1 mi
12:00 PM39 °FRain. Low clouds.7 mph97%30.13 "Hg3 mi
11:00 AM38 °FRain. Low clouds.6 mph98%30.16 "Hg3 mi
10:00 AM38 °FRain. Low clouds.6 mph97%30.17 "Hg2 mi
9:00 AM38 °FRain. Low clouds.6 mph96%30.19 "Hg2 mi
8:00 AM38 °FDrizzle. Low clouds.5 mph95%30.20 "Hg3 mi
7:00 AM38 °FFog.5 mph94%30.21 "Hg4 mi
Weather by CustomWeather, © 2014

See weather overviewHow to use our weather pages